FW7889 Weather Reports


time (UTC)temp
F
wind
direction
speed
knots
gust
knots
rain 1hr
in
rain 24hr
in
rain mn
in
humidity
%
barometer
mb
20260506123846 41 280 0.0 0.0 0.07 0.36 0.36 99 1061.5
20260506122842 41 74 1.7 2.6 0.05 0.35 0.35 99 1061.6
20260506121837 40 97 4.3 5.2 0.07 0.34 0.34 99 1061.6
20260506120836 40 333 0.9 0.9 0.12 0.33 0.33 99 1062.0
20260506115831 40 328 0.9 0.9 0.07 0.31 0.31 99 1062.3
20260506114827 40 61 2.6 5.2 0.12 0.30 0.30 99 1061.9
20260506113823 41 66 1.7 2.6 0.12 0.28 0.28 99 1062.4
20260506112822 41 72 1.7 2.6 0.05 0.26 0.26 99 1062.6
20260506111817 41 287 0.0 0.0 0.12 0.24 0.24 99 1063.1
20260506110812 41 308 0.9 0.9 0.12 0.22 0.22 99 1063.0
20260506105812 41 316 1.7 1.7 0.12 0.20 0.20 99 1063.0
20260506104806 41 326 1.7 1.7 0.12 0.17 0.17 99 1062.8
20260506103801 41 298 0.9 1.7 0.05 0.15 0.15 99 1062.6
20260506102801 42 289 0.0 0.0 0.00 0.14 0.14 99 1062.3
20260506101756 42 290 0.0 0.0 0.00 0.14 0.14 99 1062.4
20260506100756 42 58 0.9 0.9 0.07 0.14 0.14 99 1062.7
20260506095753 42 282 0.0 0.0 0.12 0.13 0.13 99 1062.8
20260506094751 42 84 0.9 0.9 0.00 0.11 0.11 99 1062.6
20260506093748 42 310 0.9 0.9 0.00 0.11 0.11 99 1062.5
20260506092748 42 291 0.0 0.9 0.00 0.11 0.11 99 1062.8
20260506091748 42 285 0.0 0.0 0.05 0.11 0.11 99 1062.8
20260506090744 42 314 1.7 1.7 0.00 0.10 0.10 99 1062.8
20260506085743 42 294 0.0 0.0 0.07 0.10 0.10 99 1063.1
20260506084742 42 322 0.0 0.9 0.00 0.09 0.09 99 1063.0
20260506083741 42 289 0.0 0.0 0.00 0.09 0.09 99 1062.9
20260506082736 43 323 0.9 0.9 0.00 0.09 0.09 99 1062.6
20260506081735 43 319 1.7 1.7 0.00 0.09 0.09 99 1063.2
20260506080731 43 322 0.9 1.7 0.00 0.09 0.09 99 1062.6
20260506072725 43 287 0.0 0.0 0.00 0.08 0.08 99 1062.8
20260506071720 43 79 2.6 2.6 0.00 0.08 0.08 99 1062.8
20260506070720 43 95 2.6 2.6 0.12 0.08 0.08 99 1063.2
20260506061708 45 289 0.0 0.0 0.00 0.06 0.06 99 1063.4
20260506060704 45 312 0.9 0.9 0.00 0.06 0.06 99 1063.7
20260506050654 46 283 0.0 0.9 0.00 0.06 0.06 99 1064.3
20260506044648 47 284 0.0 0.0 0.07 0.05 0.05 99 1064.2
20260506043648 47 274 0.0 0.0 0.05 0.04 0.04 99 1064.3
20260506042645 46 276 0.0 0.0 0.00 0.03 0.03 99 1064.7
20260506041641 47 307 1.7 1.7 0.05 0.02 0.02 99 1064.3
20260506040641 47 278 0.0 0.0 0.07 0.01 0.01 99 1064.7
20260506035641 47 278 0.0 0.9 0.05 0.38 0.38 99 1064.6
20260506034640 47 285 0.0 0.0 0.07 0.37 0.37 99 1064.1
20260506033640 47 315 1.7 1.7 0.00 0.36 0.36 99 1064.6
20260506032640 48 269 0.0 0.0 0.00 0.36 0.36 99 1064.7
20260506031639 48 294 0.9 0.9 0.19 0.35 0.35 99 1064.1
20260506030635 48 270 1.7 1.7 0.07 0.32 0.32 99 1064.3
20260506025634 48 294 0.0 0.0 0.00 0.31 0.31 99 1063.7
20260506024634 48 287 0.0 0.0 0.00 0.31 0.31 99 1063.6
20260506023632 48 277 0.0 0.0 0.00 0.31 0.31 99 1063.5
20260506022632 48 285 0.0 0.0 0.00 0.31 0.31 99 1064.2
20260506021627 49 307 0.0 0.0 0.05 0.31 0.31 99 1063.9
20260506020627 49 276 0.0 0.0 0.00 0.30 0.30 99 1064.5
20260506015622 49 291 0.0 0.0 0.00 0.30 0.30 99 1064.1
20260506014617 49 295 0.0 0.0 0.07 0.30 0.30 99 1064.1
20260506013617 49 279 0.0 0.0 0.12 0.29 0.29 99 1064.1
20260506012615 49 295 0.9 0.9 0.05 0.27 0.27 99 1064.1
20260506011615 50 321 0.9 1.7 0.07 0.26 0.26 98 1063.5
20260506010611 51 316 0.9 1.7 0.24 0.25 0.25 95 1063.6
20260506005610 53 321 2.6 2.6 0.00 0.20 0.20 88 1063.5
20260506004609 54 324 2.6 2.6 0.00 0.20 0.20 86 1063.0
20260506003608 54 321 2.6 4.3 0.00 0.20 0.20 85 1062.9
20260506002606 54 282 0.9 0.9 0.00 0.20 0.20 91 1062.9
20260506001604 54 276 0.9 0.9 0.00 0.20 0.20 93 1062.5
20260506000559 54 300 1.7 1.7 0.00 0.20 0.20 92 1062.2
20260505235554 54 296 2.6 4.3 0.00 0.20 0.20 99 1062.3
20260505234554 55 285 0.9 0.9 0.00 0.20 0.20 99 1062.1
20260505233554 55 257 0.9 1.7 0.00 0.20 0.20 99 1062.0
20260505232549 55 265 0.9 0.9 0.00 0.20 0.20 99 1061.6
20260505231548 55 266 0.0 0.0 0.00 0.20 0.20 99 1061.2
20260505230544 55 260 0.0 0.0 0.00 0.20 0.20 99 1061.1
20260505225543 55 266 0.0 0.0 0.00 0.20 0.20 99 1061.2
20260505224542 55 272 0.0 0.0 0.26 0.20 0.20 99 1061.2
20260505223542 56 255 2.6 2.6 0.24 0.16 0.16 99 1061.4
20260505222540 58 280 0.9 1.7 0.47 0.12 0.12 97 1061.4
20260505221539 60 267 0.9 0.9 0.00 0.04 0.04 91 1060.8
20260505220539 63 240 3.5 4.3 0.00 0.04 0.04 80 1060.3
20260505215535 64 260 1.7 1.7 0.00 0.04 0.04 78 1060.1
20260505214530 64 320 1.7 1.7 0.00 0.04 0.04 77 1060.0
20260505213530 65 250 2.6 2.6 0.00 0.04 0.04 76 1060.2
20260505212528 65 251 1.7 1.7 0.00 0.04 0.04 76 1059.9
20260505211523 64 291 0.9 0.9 0.00 0.04 0.04 77 1059.7
20260505210522 64 289 1.7 1.7 0.00 0.04 0.04 77 1059.8
20260505205517 64 268 0.9 0.9 0.00 0.04 0.04 77 1060.1
20260505204517 63 256 2.6 2.6 0.00 0.04 0.04 78 1060.2
20260505203517 64 279 2.6 2.6 0.00 0.04 0.04 78 1060.2
20260505202516 64 255 2.6 2.6 0.00 0.04 0.04 81 1060.1
20260505201515 63 252 2.6 2.6 0.00 0.04 0.04 82 1059.8
20260505200510 63 253 2.6 2.6 0.00 0.04 0.04 84 1060.1
20260505195509 61 264 1.7 1.7 0.00 0.04 0.04 84 1060.0
20260505194510 60 248 2.6 2.6 0.00 0.04 0.04 85 1060.2
20260505193507 60 232 7.0 7.8 0.00 0.04 0.04 87 1060.6
20260505192503 60 259 5.2 8.7 0.00 0.04 0.04 89 1060.6
20260505191458 60 254 1.7 2.6 0.00 0.04 0.04 88 1060.2
20260505190456 62 313 2.6 2.6 0.00 0.04 0.04 81 1060.2
20260505185455 63 300 0.9 1.7 0.00 0.04 0.04 79 1059.8
20260505184454 62 259 3.5 4.3 0.00 0.04 0.04 79 1059.8
20260505183454 65 273 2.6 4.3 0.00 0.04 0.04 73 1059.8
20260505182453 67 266 4.3 5.2 0.00 0.04 0.04 65 1059.0
20260505181453 68 241 4.3 5.2 0.00 0.04 0.04 64 1059.1
20260505180452 68 248 0.9 1.7 0.00 0.04 0.04 65 1058.9
20260505175450 67 247 3.5 5.2 0.00 0.04 0.04 65 1058.9
20260505174450 67 261 3.5 4.3 0.00 0.04 0.04 66 1059.0
20260505173449 68 246 4.3 5.2 0.00 0.04 0.04 64 1059.0
20260505172445 68 245 0.9 0.9 0.00 0.04 0.04 65 1059.2
20260505171441 68 253 4.3 5.2 0.00 0.04 0.04 64 1058.9
20260505170440 68 233 6.1 7.8 0.00 0.04 0.04 63 1058.9
20260505165437 68 229 6.1 7.0 0.00 0.04 0.04 63 1058.7
20260505164436 68 251 2.6 2.6 0.00 0.04 0.04 64 1058.7
20260505163432 68 254 2.6 2.6 0.00 0.04 0.04 64 1058.8
20260505162432 68 252 5.2 6.1 0.00 0.04 0.04 64 1058.9
20260505161432 69 236 9.6 11.3 0.00 0.04 0.04 63 1058.9
20260505160428 69 233 9.6 12.2 0.00 0.04 0.04 63 1058.9
20260505152425 68 263 4.3 6.1 0.00 0.04 0.04 64 1059.1
20260505151421 68 263 7.0 8.7 0.00 0.04 0.04 64 1059.2
20260505150421 68 242 8.7 11.3 0.00 0.04 0.04 65 1059.0
20260505140409 65 265 3.5 5.2 0.00 0.04 0.04 71 1059.2